Change the Weather History Date:

Wednesday, September 4, 2013

  Actual Average Record
Temperature  
Mean Temperature 79 °F 68 °F  
Max Temperature 98 °F 82 °F 99 °F (1960)
Min Temperature 60 °F 53 °F 38 °F (1961)
Cooling Degree Days 14    
Growing Degree Days 29 (Base 50)    
Moisture  
Dew Point 53 °F    
Average Humidity 44    
Maximum Humidity 81    
Minimum Humidity 19    
Precipitation  
Precipitation 0.00 in 0.04 in 1.61 in (1940)
Month to date precipitation 0.00 0.18  
Year to date precipitation 10.45 14.33  
Sea Level Pressure  
Sea Level Pressure 29.96 in    
Wind  
Wind Speed 12 mph (South)    
Max Wind Speed 17 mph    
Max Gust Speed 24 mph    
Visibility 10 miles    
Events      
T = Trace of Precipitation, MM = Missing Value Source: NWS Daily Summary

Daily Weather History Graph

Daily Weather History Graph

Search for Another Location

Airport or City:

Trip Planner

Search our weather history database for the weather conditions in past years. The results will help you decide how hot, cold, wet, or windy it might be!

Date:

Astronomy

Sep. 04, 2013 Rise Set
Actual Time 6:20 AM MDT 7:14 PM MDT
Civil Twilight 5:53 AM MDT 7:41 PM MDT
Nautical Twilight 5:20 AM MDT 8:14 PM MDT
Astronomical Twilight 4:47 AM MDT 8:47 PM MDT
Moon 5:34 AM MDT (9/4) 6:35 PM MDT (9/4)
Length of Visible Light 13h 48m
Length of Day
12h 53m
Waning Crescent, 1% of the Moon is Illuminated
Sep 4
Waning Crescent
Sep 5
New
Sep 12
First Quarter
Sep 19
Full
Sep 26
Last Quarter

Hourly Weather History & Observations

Time (MDT) Temp. Heat Index Dew Point Humidity Pressure Visibility Wind Dir Wind Speed Gust Speed Precip Events Conditions
12:53 AM 70.0 °F - 57.0 °F 63% 29.93 in 10.0 mi South 15.0 mph - N/A   Clear
1:53 AM 69.1 °F - 55.9 °F 63% 29.92 in 10.0 mi South 13.8 mph - N/A   Clear
2:53 AM 69.1 °F - 55.9 °F 63% 29.91 in 10.0 mi South 15.0 mph - N/A   Clear
3:53 AM 68.0 °F - 55.0 °F 63% 29.92 in 10.0 mi South 12.7 mph - N/A   Clear
4:53 AM 64.0 °F - 55.0 °F 73% 29.94 in 10.0 mi West 6.9 mph - N/A   Clear
5:53 AM 61.0 °F - 54.0 °F 78% 29.95 in 10.0 mi South 6.9 mph - N/A   Clear
6:53 AM 61.0 °F - 55.0 °F 81% 29.97 in 10.0 mi SSW 6.9 mph - N/A   Clear
7:53 AM 70.0 °F - 55.0 °F 59% 29.97 in 10.0 mi SSW 9.2 mph - N/A   Clear
8:53 AM 75.9 °F - 54.0 °F 46% 29.98 in 10.0 mi SW 8.1 mph - N/A   Clear
9:53 AM 81.0 °F 80.7 °F 55.0 °F 41% 29.99 in 10.0 mi WSW 3.5 mph - N/A   Clear
10:53 AM 89.1 °F 86.9 °F 54.0 °F 30% 29.99 in 10.0 mi SSW 6.9 mph - N/A   Clear
11:53 AM 93.0 °F 90.6 °F 53.1 °F 26% 29.98 in 10.0 mi South 10.4 mph 18.4 mph N/A   Clear
12:53 PM 95.0 °F - 51.1 °F 22% 29.96 in 10.0 mi SSE 11.5 mph 19.6 mph N/A   Clear
1:53 PM 97.0 °F - 51.1 °F 21% 29.96 in 10.0 mi SSE 17.3 mph 23.0 mph N/A   Clear
2:53 PM 97.0 °F - 50.0 °F 20% 29.94 in 10.0 mi SSE 11.5 mph 24.2 mph N/A   Clear
3:53 PM 97.0 °F - 48.9 °F 19% 29.93 in 10.0 mi SE 16.1 mph 23.0 mph N/A   Clear
4:53 PM 96.1 °F - 48.9 °F 20% 29.94 in 10.0 mi SSE 17.3 mph 23.0 mph N/A   Clear
5:53 PM 91.9 °F - 48.9 °F 23% 29.94 in 10.0 mi SSE 12.7 mph - N/A   Clear
6:53 PM 87.1 °F - 48.0 °F 26% 29.96 in 10.0 mi SSE 10.4 mph - N/A   Clear
7:53 PM 82.0 °F - 48.0 °F 30% 29.97 in 10.0 mi SE 10.4 mph - N/A   Clear
8:53 PM 79.0 °F - 50.0 °F 36% 29.99 in 10.0 mi SE 12.7 mph - N/A   Clear
9:53 PM 75.0 °F - 52.0 °F 44% 30.00 in 10.0 mi SSE 10.4 mph - N/A   Clear
10:53 PM 73.0 °F - 53.1 °F 49% 29.99 in 10.0 mi SSE 11.5 mph - N/A   Clear
11:53 PM 72.0 °F - 52.0 °F 49% 30.00 in 10.0 mi SSE 10.4 mph - N/A   Clear